Estación Meteorológica Peña el Pijo (Robertgarden) [ 09/30/20 21:06:26 CEST ]

Fecha Hora Presion(HPa) Temp (°C) Humedad % Rocio (°C) Viento ( m/s) Direccion Lluvia 1Hora(mm) Lluvia 24H(mm) LLuvia Total(mm)
2020-Feb-12 01:08:59 1013.700 - - - - N     39.88
2020-Feb-12 02:09:49 1013.200 - - - - N     39.88
2020-Feb-12 03:09:20 1012.700 - - - - N     39.88
2020-Feb-12 04:09:28 1012.400 - - - - N     39.88
2020-Feb-12 05:13:09 1012.700 - - - - N     39.88
2020-Feb-12 06:09:50 1012.600 - - - - N     39.88
2020-Feb-12 07:09:45 1012.800 - - - - N     39.88
2020-Feb-12 08:09:15 1013.400 - - - - N     39.88
2020-Feb-12 09:09:12 1013.200 - - - - N     39.88
2020-Feb-12 10:09:08 1013.200 - - - - N     39.88
2020-Feb-12 11:08:54 1012.800 - - - - N     39.88
2020-Feb-12 12:08:54 1012.800 - - - - N     39.88
2020-Feb-12 13:09:01 1012.000 - - - - N     39.88
2020-Feb-12 14:08:54 1011.500 - - - - N     39.88
2020-Feb-12 15:09:07 1010.800 - - - - N     39.88
2020-Feb-12 16:09:12 1010.600 - - - - N     39.88
2020-Feb-12 17:08:53 1010.500 - - - - N     39.88
2020-Feb-12 18:09:26 1010.600 - - - - N     39.88
2020-Feb-12 19:09:13 1011.300 - - - - N     39.88
2020-Feb-12 20:09:07 1011.600 - - - - N     39.88
2020-Feb-12 21:09:12 1011.800 - - - - N     39.88
2020-Feb-12 22:09:20 1012.400 - - - - N     39.88
2020-Feb-12 23:09:29 1012.300 - - - - N     39.88

Temperatura Máxima:    Temperatura Mínima:
Presión Máxima:1013.700 Hpa    Presión Mínima:1010.500 Hpa


Volver